Back to catalog

FREGAT DEB

AliveUNKNOWN
NORAD 45902·DEBRIS·🇷🇺 Russia

Launched Jul 18, 2011 from Baikonur Cosmodrome

Loading…

Next Passes (next 24 hours)

TLE

FreshSource: Space-Track

Epoch: Sep 13, 2026, 07:37 UTC

1 45902U 11037DX  26256.31798902  .00008260  00000-0  13088-2 0  9990
2 45902  51.4327 300.9837 1505822  50.0421 322.3271 12.14108161262565

Track FREGAT DEB in real time with AllMySat

Download on the App Store